EW7063 Weather Reports


Display with metric or nautical units.
time (UTC)temp
F
wind
direction
speed
MPH
gust
MPH
rain 1hr
in
rain 24hr
in
rain mn
in
humidity
%
barometer
mb
20260508205853 63 320 5.0 11.0 0.00 0.00 0.00 55 1008.8
20260508205126 63 251 5.0 15.0 0.00 0.00 0.00 54 1008.9
20260508205122 63 275 5.0 15.0 0.00 0.00 0.00 55 1008.8
20260508204121 63 252 4.0 14.0 0.00 0.00 0.00 54 1008.9
20260508203619 63 237 5.0 13.0 0.00 0.00 0.00 54 1008.9
20260508203124 64 281 5.0 17.0 0.00 0.00 0.00 56 1009.1
20260508203119 63 242 5.0 16.0 0.00 0.00 0.00 53 1009.0
20260508202120 64 232 5.0 17.0 0.00 0.00 0.00 51 1009.1
20260508201619 64 246 5.0 11.0 0.00 0.00 0.00 53 1009.2
20260508201119 64 252 5.0 16.0 0.00 0.00 0.00 52 1009.3
20260508200621 64 290 5.0 16.0 0.00 0.00 0.00 52 1009.3
20260508200115 64 238 6.0 15.0 0.00 0.00 0.00 51 1009.3
20260508195614 65 285 6.0 16.0 0.00 0.00 0.00 51 1009.3
20260508195113 65 262 5.0 16.0 0.00 0.00 0.00 51 1009.3
20260508194613 65 238 5.0 18.0 0.00 0.00 0.00 52 1009.4
20260508194113 65 252 6.0 18.0 0.00 0.00 0.00 53 1009.4
20260508193613 66 261 6.0 16.0 0.00 0.00 0.00 50 1009.4
20260508193114 65 207 5.0 16.0 0.00 0.00 0.00 54 1009.5
20260508192612 65 292 4.0 12.0 0.00 0.00 0.00 53 1009.5
20260508192109 65 209 4.0 11.0 0.00 0.00 0.00 53 1009.7
20260508191608 65 355 5.0 11.0 0.00 0.00 0.00 51 1009.8
20260508191109 65 240 5.0 16.0 0.00 0.00 0.00 53 1009.9
20260508190607 65 240 5.0 16.0 0.00 0.00 0.00 53 1009.9
20260508190108 65 229 6.0 16.0 0.00 0.00 0.00 52 1009.9
20260508185606 66 297 5.0 16.0 0.00 0.00 0.00 53 1010.0
20260508185103 66 242 6.0 17.0 0.00 0.00 0.00 55 1010.0
20260508184600 67 249 7.0 17.0 0.00 0.00 0.00 52 1010.1
20260508184102 67 263 7.0 15.0 0.00 0.00 0.00 56 1010.1
20260508183601 66 255 6.0 15.0 0.00 0.00 0.00 58 1010.1
20260508183335 65 145 5.0 14.0 0.00 0.00 0.00 57 1010.1
20260508182559 65 198 5.0 13.0 0.00 0.00 0.00 52 1010.2
20260508182328 65 185 5.0 14.0 0.00 0.00 0.00 54 1010.3
20260508181557 65 251 5.0 14.0 0.00 0.00 0.00 57 1010.4
20260508181057 65 207 6.0 14.0 0.00 0.00 0.00 54 1010.4
20260508180557 66 252 6.0 16.0 0.00 0.00 0.00 52 1010.4
20260508180330 67 237 5.0 16.0 0.00 0.00 0.00 49 1010.5
20260508175558 67 250 5.0 15.0 0.00 0.00 0.00 51 1010.5
20260508175324 68 252 5.0 15.0 0.00 0.00 0.00 51 1010.5
20260508174550 68 263 6.0 14.0 0.00 0.00 0.00 55 1010.6
20260508174052 68 270 6.0 17.0 0.00 0.00 0.00 53 1010.8
20260508173551 68 249 6.0 17.0 0.00 0.00 0.00 52 1010.7
20260508173052 68 260 6.0 18.0 0.00 0.00 0.00 52 1010.9
20260508172554 68 320 6.0 18.0 0.00 0.00 0.00 55 1011.0
20260508172549 68 257 5.0 16.0 0.00 0.00 0.00 53 1011.0
20260508171819 67 195 5.0 18.0 0.00 0.00 0.00 55 1011.2
20260508171701 67 219 6.0 18.0 0.00 0.00 0.00 57 1011.3
20260508170544 66 239 4.0 16.0 0.00 0.00 0.00 57 1011.4
20260508170050 65 256 6.0 12.0 0.00 0.00 0.00 56 1011.7
20260508170045 66 198 5.0 14.0 0.00 0.00 0.00 59 1011.7
20260508165037 65 201 5.0 11.0 0.00 0.00 0.00 59 1011.9
20260508164536 64 234 4.0 10.0 0.00 0.00 0.00 55 1011.9
20260508164303 64 248 4.0 10.0 0.00 0.00 0.00 59 1012.0
20260508163531 64 213 4.0 14.0 0.00 0.00 0.00 61 1012.0
20260508163033 64 261 4.0 14.0 0.00 0.00 0.00 59 1012.0
20260508162529 63 254 4.0 12.0 0.00 0.00 0.00 57 1012.1
20260508162029 63 179 4.0 12.0 0.00 0.00 0.00 57 1012.1
20260508161530 64 201 5.0 16.0 0.00 0.00 0.00 58 1012.1
20260508161026 64 192 6.0 16.0 0.00 0.00 0.00 57 1012.2
20260508160525 65 182 5.0 13.0 0.00 0.00 0.00 55 1012.2
20260508160024 64 255 5.0 17.0 0.00 0.00 0.00 56 1012.2
20260508155522 64 270 6.0 17.0 0.00 0.00 0.00 57 1012.2
20260508155020 64 15 6.0 13.0 0.00 0.00 0.00 58 1012.3
20260508154522 63 212 5.0 14.0 0.00 0.00 0.00 63 1012.3
20260508154021 62 245 5.0 14.0 0.00 0.00 0.00 60 1012.3
20260508153519 62 238 6.0 14.0 0.00 0.00 0.00 59 1012.4
20260508153020 62 269 6.0 14.0 0.00 0.00 0.00 56 1012.4
20260508152514 62 232 6.0 16.0 0.00 0.00 0.00 59 1012.4
20260508152012 62 14 6.0 16.0 0.00 0.00 0.00 57 1012.5
20260508151513 61 263 5.0 13.0 0.00 0.00 0.00 58 1012.4
20260508151012 60 300 4.0 11.0 0.00 0.00 0.00 60 1012.3
20260508150513 60 259 4.0 9.0 0.00 0.00 0.00 62 1012.5
20260508150014 60 232 3.0 9.0 0.00 0.00 0.00 62 1012.5
20260508145511 61 275 3.0 9.0 0.00 0.00 0.00 61 1012.6
20260508145010 61 270 3.0 11.0 0.00 0.00 0.00 64 1012.7
20260508144512 60 304 3.0 11.0 0.00 0.00 0.00 63 1012.7
20260508144011 59 296 3.0 8.0 0.00 0.00 0.00 67 1012.7
20260508143514 58 252 4.0 8.0 0.00 0.00 0.00 63 1012.8
20260508143011 58 250 4.0 11.0 0.00 0.00 0.00 66 1012.8
20260508142512 57 298 3.0 11.0 0.00 0.00 0.00 63 1012.9
20260508142242 57 260 3.0 6.0 0.00 0.00 0.00 65 1012.9
20260508141509 56 288 2.0 6.0 0.00 0.00 0.00 68 1013.0
20260508141010 55 261 3.0 7.0 0.00 0.00 0.00 69 1012.9
20260508140510 55 262 3.0 7.0 0.00 0.00 0.00 70 1013.0
20260508140239 54 296 3.0 7.0 0.00 0.00 0.00 68 1013.2
20260508135508 54 252 3.0 9.0 0.00 0.00 0.00 70 1013.2
20260508135010 53 262 4.0 12.0 0.00 0.00 0.00 70 1013.3
20260508134509 53 243 3.0 12.0 0.00 0.00 0.00 69 1013.2
20260508134010 53 267 3.0 8.0 0.00 0.00 0.00 70 1013.2
20260508133510 52 251 3.0 9.0 0.00 0.00 0.00 70 1013.1
20260508133009 52 192 2.0 9.0 0.00 0.00 0.00 73 1013.1
20260508132510 51 258 2.0 7.0 0.00 0.00 0.00 74 1013.0
20260508132236 51 217 3.0 8.0 0.00 0.00 0.00 74 1013.1
20260508131504 51 253 3.0 8.0 0.00 0.00 0.00 73 1013.0
20260508131005 51 241 3.0 8.0 0.00 0.00 0.00 73 1013.1
20260508130505 51 273 3.0 8.0 0.00 0.00 0.00 75 1013.0
20260508130006 50 252 2.0 7.0 0.00 0.00 0.00 76 1013.1
20260508125507 50 245 2.0 7.0 0.00 0.00 0.00 75 1013.0
20260508125002 50 230 2.0 7.0 0.00 0.00 0.00 76 1013.1
20260508124501 49 254 2.0 6.0 0.00 0.00 0.00 76 1013.0
20260508124003 49 219 2.0 6.0 0.00 0.00 0.00 77 1013.0
20260508123500 49 215 1.0 5.0 0.00 0.00 0.00 79 1013.0
20260508123001 48 232 2.0 5.0 0.00 0.00 0.00 79 1013.0
20260508122502 48 197 1.0 5.0 0.00 0.00 0.00 80 1013.0
20260508121957 48 207 1.0 5.0 0.00 0.00 0.00 81 1012.9
20260508121459 47 205 2.0 6.0 0.00 0.00 0.00 82 1013.0
20260508121229 47 227 1.0 6.0 0.00 0.00 0.00 82 1012.9
20260508120456 46 216 1.0 5.0 0.00 0.00 0.00 83 1012.9
20260508115958 46 215 1.0 5.0 0.00 0.00 0.00 85 1012.9
20260508115457 45 219 1.0 3.0 0.00 0.00 0.00 85 1012.9
20260508115226 45 217 0.0 3.0 0.00 0.00 0.00 86 1012.9
20260508114453 45 216 1.0 4.0 0.00 0.00 0.00 86 1012.9
20260508113952 44 213 1.0 4.0 0.00 0.00 0.00 86 1012.8
20260508113450 44 211 1.0 3.0 0.00 0.00 0.00 85 1012.7
20260508112948 44 211 1.0 3.0 0.00 0.00 0.00 84 1012.6
20260508112720 43 212 0.0 2.0 0.00 0.00 0.00 84 1012.6
20260508111943 43 211 0.0 3.0 0.00 0.00 0.00 84 1012.5
20260508111442 43 211 1.0 3.0 0.00 0.00 0.00 84 1012.6
20260508110939 43 205 1.0 4.0 0.00 0.00 0.00 85 1012.5
20260508110708 43 206 1.0 4.0 0.00 0.00 0.00 85 1012.5
20260508105938 43 223 1.0 2.0 0.00 0.00 0.00 85 1012.5
20260508105437 43 223 1.0 3.0 0.00 0.00 0.00 84 1012.4
20260508104935 43 222 1.0 3.0 0.00 0.00 0.00 84 1012.4
20260508104435 43 220 1.0 3.0 0.00 0.00 0.00 84 1012.4
20260508103930 43 219 1.0 3.0 0.00 0.00 0.00 84 1012.4
20260508103659 43 213 1.0 4.0 0.00 0.00 0.00 84 1012.3
20260508102931 42 212 1.0 4.0 0.00 0.00 0.00 83 1012.3
20260508102427 43 224 1.0 4.0 0.00 0.00 0.00 84 1012.3
20260508101924 43 227 1.0 4.0 0.00 0.00 0.00 83 1012.3
20260508101422 43 213 1.0 3.0 0.00 0.00 0.00 83 1012.2
20260508100922 42 204 1.0 3.0 0.00 0.00 0.00 83 1012.3
20260508100651 43 215 1.0 3.0 0.00 0.00 0.00 83 1012.3
20260508095921 43 213 1.0 4.0 0.00 0.00 0.00 83 1012.3
20260508095418 43 215 1.0 4.0 0.00 0.00 0.00 83 1012.2
20260508094923 42 251 1.0 6.0 0.00 0.00 0.00 83 1012.3
20260508094918 43 208 1.0 6.0 0.00 0.00 0.00 84 1012.2
20260508093915 42 251 2.0 7.0 0.00 0.00 0.00 83 1012.3
20260508093644 42 242 1.0 7.0 0.00 0.00 0.00 82 1012.3
20260508092913 42 263 1.0 4.0 0.00 0.00 0.00 81 1012.3
20260508092411 43 194 1.0 4.0 0.00 0.00 0.00 81 1012.3
20260508091908 43 203 1.0 4.0 0.00 0.00 0.00 81 1012.3
20260508091641 43 197 1.0 4.0 0.00 0.00 0.00 81 1012.3
20260508090910 43 206 1.0 4.0 0.00 0.00 0.00 82 1012.3
20260508090406 43 205 1.0 4.0 0.00 0.00 0.00 81 1012.3
20260508085905 43 210 1.0 3.0 0.00 0.00 0.00 81 1012.3
20260508085358 43 224 1.0 4.0 0.00 0.00 0.00 81 1012.4
20260508084859 43 221 1.0 4.0 0.00 0.00 0.00 81 1012.4
20260508084357 43 247 1.0 7.0 0.00 0.00 0.00 81 1012.3
20260508083855 43 253 1.0 7.0 0.00 0.00 0.00 81 1012.4
20260508083354 43 238 0.0 4.0 0.00 0.00 0.00 80 1012.5
20260508082852 43 246 0.0 2.0 0.00 0.00 0.00 80 1012.4
20260508082351 43 250 0.0 2.0 0.00 0.00 0.00 79 1012.4
20260508081851 43 235 0.0 1.0 0.00 0.00 0.00 79 1012.4
20260508081352 43 229 0.0 3.0 0.00 0.00 0.00 79 1012.4
20260508080848 43 217 0.0 3.0 0.00 0.00 0.00 79 1012.4
20260508080350 43 242 0.0 0.0 0.00 0.00 0.00 78 1012.4
20260508075844 44 242 0.0 0.0 0.00 0.00 0.00 78 1012.4
20260508075346 44 242 0.0 0.0 0.00 0.00 0.00 78 1012.4
20260508074846 44 243 0.0 0.0 0.00 0.00 0.00 78 1012.4
20260508074344 44 244 0.0 1.0 0.00 0.00 0.00 78 1012.4
20260508073842 44 245 0.0 2.0 0.00 0.00 0.00 78 1012.4
20260508073343 44 246 0.0 2.0 0.00 0.00 0.00 78 1012.5
20260508072837 44 246 0.0 2.0 0.00 0.00 0.00 77 1012.5
20260508072342 45 247 1.0 3.0 0.00 0.00 0.00 77 1012.6
20260508072336 44 246 0.0 2.0 0.00 0.00 0.00 77 1012.5
20260508071337 45 247 1.0 3.0 0.00 0.00 0.00 76 1012.6
20260508071105 46 247 1.0 3.0 0.00 0.00 0.00 76 1012.7
20260508070336 46 250 0.0 3.0 0.00 0.00 0.00 75 1012.6
20260508065830 46 251 0.0 5.0 0.00 0.00 0.00 74 1012.7
20260508065331 47 253 1.0 5.0 0.00 0.00 0.00 74 1012.7
20260508064832 47 220 1.0 4.0 0.00 0.00 0.00 74 1012.7
20260508064602 47 219 1.0 5.0 0.00 0.00 0.00 73 1012.7
20260508063828 48 204 1.0 5.0 0.00 0.00 0.00 72 1012.8
20260508063329 48 316 1.0 5.0 0.00 0.00 0.00 73 1012.9
20260508063055 48 355 2.0 6.0 0.00 0.00 0.00 71 1013.1
20260508062557 48 342 2.0 6.0 0.00 0.00 0.00 72 1013.0
20260508061825 48 302 2.0 6.0 0.00 0.00 0.00 73 1012.8
20260508061324 48 277 2.0 9.0 0.00 0.00 0.00 73 1012.6
20260508060823 48 209 2.0 9.0 0.00 0.00 0.00 72 1012.6
20260508060324 48 229 2.0 6.0 0.00 0.00 0.00 72 1012.5
20260508055817 48 236 2.0 6.0 0.00 0.00 0.00 73 1012.6
20260508055317 48 232 2.0 6.0 0.00 0.00 0.00 72 1012.7
20260508055047 48 215 2.0 6.0 0.00 0.00 0.00 73 1012.7
20260508054317 48 192 2.0 4.0 0.00 0.00 0.00 73 1012.7
20260508053816 48 233 1.0 4.0 0.00 0.00 0.00 73 1012.7
20260508053317 48 200 1.0 5.0 0.00 0.00 0.00 73 1012.7
20260508052812 48 194 2.0 5.0 0.00 0.00 0.00 73 1012.7
20260508052542 48 215 2.0 8.0 0.00 0.00 0.00 73 1012.6
20260508051812 48 205 3.0 8.0 0.00 0.00 0.00 73 1012.7
20260508051310 48 193 3.0 6.0 0.00 0.00 0.00 73 1012.7
20260508050809 48 204 2.0 6.0 0.00 0.00 0.00 74 1012.7
20260508050312 48 211 2.0 6.0 0.00 0.00 0.00 75 1012.7
20260508045807 48 200 2.0 6.0 0.00 0.00 0.00 76 1012.7
20260508045537 47 209 2.0 6.0 0.00 0.00 0.00 75 1012.8
20260508044804 47 215 2.0 6.0 0.00 0.00 0.00 76 1012.8
20260508044304 47 202 1.0 4.0 0.00 0.00 0.00 76 1012.8
20260508044035 47 201 1.0 3.0 0.00 0.00 0.00 78 1012.8
20260508043538 47 199 1.0 4.0 0.00 0.00 0.00 77 1012.8
20260508042759 47 198 1.0 4.0 0.00 0.00 0.00 77 1012.8
20260508042257 47 227 1.0 4.0 0.00 0.00 0.00 78 1012.8
20260508041756 47 234 0.0 2.0 0.00 0.00 0.00 77 1012.8
20260508041255 47 234 0.0 1.0 0.00 0.00 0.00 77 1012.9
20260508041027 47 234 0.0 1.0 0.00 0.00 0.00 77 1012.9
20260508040527 47 234 0.0 1.0 0.00 0.00 0.00 78 1012.9
20260508035750 47 234 0.0 3.0 0.00 0.00 0.00 78 1012.9
20260508035250 47 234 0.0 3.0 0.00 0.00 0.00 79 1012.9
20260508034752 47 234 0.0 1.0 0.00 0.00 0.00 79 1012.9
20260508034249 48 234 1.0 3.0 0.00 0.00 0.00 80 1012.9
20260508033750 48 235 1.0 3.0 0.00 0.00 0.00 80 1013.0
20260508033251 48 234 0.0 2.0 0.00 0.00 0.00 78 1013.0
20260508033021 48 234 0.0 3.0 0.00 0.00 0.00 77 1013.0
20260508032247 48 234 0.0 4.0 0.00 0.00 0.00 77 1012.8
20260508031747 47 234 0.0 4.0 0.00 0.00 0.00 78 1012.8
20260508031249 47 234 1.0 5.0 0.00 0.00 0.00 78 1012.8
20260508030749 47 217 2.0 5.0 0.00 0.00 0.00 78 1012.7
20260508030249 47 206 2.0 5.0 0.00 0.00 0.00 78 1012.7
20260508025748 47 199 2.0 4.0 0.00 0.00 0.00 76 1012.7
20260508025248 47 213 2.0 5.0 0.00 0.00 0.00 77 1012.7
20260508024747 47 195 2.0 5.0 0.00 0.00 0.00 78 1012.7
20260508024248 47 189 2.0 4.0 0.00 0.00 0.00 76 1012.7
20260508023749 47 205 2.0 4.0 0.00 0.00 0.00 75 1012.6
20260508023245 47 202 2.0 4.0 0.00 0.00 0.00 75 1012.7
20260508022745 47 207 2.0 3.0 0.00 0.00 0.00 72 1012.6
20260508022245 47 212 1.0 3.0 0.00 0.00 0.00 72 1012.7
20260508021744 47 238 1.0 3.0 0.00 0.00 0.00 69 1012.7
20260508021245 47 242 1.0 3.0 0.00 0.00 0.00 69 1012.7
20260508020745 48 242 1.0 3.0 0.00 0.00 0.00 70 1012.7
20260508020239 48 246 1.0 3.0 0.00 0.00 0.00 69 1012.8
20260508015741 48 246 2.0 3.0 0.00 0.00 0.00 67 1012.7
20260508015240 48 248 1.0 3.0 0.00 0.00 0.00 68 1012.7
20260508014740 48 269 0.0 2.0 0.00 0.00 0.00 68 1012.7
20260508014240 48 271 0.0 1.0 0.00 0.00 0.00 67 1012.7
20260508013745 48 271 0.0 0.0 0.00 0.00 0.00 66 1012.7
20260508013741 48 271 0.0 0.0 0.00 0.00 0.00 66 1012.8
20260508013006 48 271 0.0 0.0 0.00 0.00 0.00 66 1012.6
20260508012235 48 272 0.0 0.0 0.00 0.00 0.00 66 1012.5
20260508011735 49 272 0.0 0.0 0.00 0.00 0.00 66 1012.7
20260508011235 49 272 0.0 0.0 0.00 0.00 0.00 66 1012.8
20260508010736 49 272 0.0 0.0 0.00 0.00 0.00 66 1012.8
20260508010233 49 272 0.0 0.0 0.00 0.00 0.00 66 1012.7
20260508005731 49 272 0.0 0.0 0.00 0.00 0.00 65 1012.7
20260508005232 50 272 0.0 1.0 0.00 0.00 0.00 66 1012.7
20260508004731 50 272 0.0 1.0 0.00 0.00 0.00 66 1012.7
20260508004234 50 272 0.0 1.0 0.00 0.00 0.00 65 1012.7
20260508003733 51 272 0.0 1.0 0.00 0.00 0.00 63 1012.7
20260508003456 51 272 0.0 1.0 0.00 0.00 0.00 63 1012.6
20260508002727 51 272 0.0 3.0 0.00 0.00 0.00 62 1012.7
20260508002455 52 272 0.0 3.0 0.00 0.00 0.00 61 1012.5
20260508001721 52 273 1.0 3.0 0.00 0.00 0.00 61 1012.5
20260508001455 52 271 1.0 3.0 0.00 0.00 0.00 59 1012.6
20260508000723 53 273 0.0 2.0 0.00 0.00 0.00 59 1012.5
20260508000221 53 273 0.0 2.0 0.00 0.00 0.00 57 1012.5
20260507235953 53 273 0.0 3.0 0.00 0.00 0.00 57 1012.4
20260507235221 54 273 1.0 4.0 0.00 0.00 0.00 56 1012.4
20260507234717 54 273 2.0 5.0 0.00 0.00 0.00 54 1012.4
20260507234219 54 292 2.0 7.0 0.00 0.00 0.00 53 1012.4
20260507233717 55 265 3.0 7.0 0.00 0.00 0.00 53 1012.4
20260507233218 55 284 3.0 7.0 0.00 0.00 0.00 52 1012.4
20260507232715 55 259 2.0 7.0 0.00 0.00 0.00 52 1012.3
20260507232446 55 255 2.0 9.0 0.00 0.00 0.00 51 1012.3
20260507231709 56 325 3.0 9.0 0.00 0.00 0.00 51 1012.3
20260507231214 56 282 3.0 8.0 0.00 0.00 0.00 50 1012.4
20260507231209 56 242 3.0 8.0 0.00 0.00 0.00 51 1012.3
20260507230209 56 285 2.0 6.0 0.00 0.00 0.00 52 1012.4
20260507225711 56 257 3.0 8.0 0.00 0.00 0.00 52 1012.4
20260507225207 56 307 3.0 8.0 0.00 0.00 0.00 48 1012.3
20260507224706 56 254 3.0 6.0 0.00 0.00 0.00 50 1012.3
20260507224438 56 275 3.0 7.0 0.00 0.00 0.00 49 1012.3
20260507223706 57 271 3.0 8.0 0.00 0.00 0.00 48 1012.4
20260507223206 57 221 3.0 8.0 0.00 0.00 0.00 50 1012.5
20260507222934 57 302 4.0 8.0 0.00 0.00 0.00 46 1012.5
20260507222201 57 244 4.0 10.0 0.00 0.00 0.00 49 1012.5
20260507221702 57 278 3.0 10.0 0.00 0.00 0.00 49 1012.6
20260507221155 57 242 4.0 10.0 0.00 0.00 0.00 48 1012.6
20260507220924 57 217 4.0 9.0 0.00 0.00 0.00 50 1012.5
20260507220151 57 269 4.0 13.0 0.00 0.00 0.00 49 1012.7
20260507215650 57 306 4.0 13.0 0.00 0.00 0.00 47 1012.7
20260507215151 56 280 4.0 10.0 0.00 0.00 0.00 46 1012.7
20260507214643 56 293 5.0 14.0 0.00 0.00 0.00 49 1012.6
20260507214143 56 292 5.0 14.0 0.00 0.00 0.00 47 1012.6
20260507213643 57 347 4.0 9.0 0.00 0.00 0.00 48 1012.6
20260507213143 57 321 5.0 11.0 0.00 0.00 0.00 46 1012.5
20260507212643 57 316 6.0 13.0 0.00 0.00 0.00 45 1012.6
20260507212147 57 317 4.0 13.0 0.00 0.00 0.00 52 1012.6
20260507211639 56 309 3.0 15.0 0.00 0.00 0.00 52 1012.7
20260507211137 56 309 4.0 15.0 0.00 0.00 0.00 49 1012.7
20260507210637 57 283 5.0 12.0 0.00 0.00 0.00 51 1012.6
20260507210137 58 275 5.0 12.0 0.00 0.00 0.00 48 1012.6